sat.trackr.live / text

‹ back to catalog

HBTSS-SV1

NORAD 58960 · 2024-028F

PAYLOAD ACTIVE UNKNOWN

§ Identity

Operator
Country
US
Launch date
2024-02-14
Launch site
AFETR
Launch vehicle
Mass (kg)
RCS (m²)

External: N2YO · Heavens-Above · Gunter

§ Orbital elements

Epoch: 2026-05-25T00:31:34.644864Z

Period
96.31 min
Inclination
39.9890°
Eccentricity
0.0010118
Mean motion
14.95108696 rev/d
Perigee alt
575.0 km
Apogee alt
589.1 km
Semi-major
6,960.2 km
B*
3.3119e-4
RAAN
251.1871°
Arg perigee
27.8863°
Mean anomaly
332.2468°
Rev number
10,371

§ Raw data

HBTSS-SV11 58960U 24028F   26145.02192876  .00003557  00000+0  33119-3 0  99962 58960  39.9890 251.1871 0010118  27.8863 332.2468 14.95108696103717

JSON: /api/v1/satellites/58960 · /tle

For live sub-satellite position, see the globe view (requires WebGL).

§ Visibility from observer

Set your observer location to see the next 7 days of passes ≥ 10°. The values pass through the URL so the page stays shareable.

No JS? Fill the form by hand. The geolocation button needs JavaScript.